STARLINK-1013 (44719 NORAD) Tracking and Keplerian Element Data

This shows tracking and keplerian element data for the satellite.

Feedback or suggestion? Click here.




ElementValue
Catalog44719
NameSTARLINK-1013
Epoch Orbit1145
Epoch Day23.25001157
Epoch Year2020
RAAN169.3315
Inclination53.0056
Eccentricity0.0002786
Argument of Perigee25.5616
Mean Anonmoly261.6715
Mean Motion15.73004016
Decay Rate0.01176481
L11 44719U 19074G 20023.25001157 .01176481 00000-0 76343-2 0 9997
L22 44719 53.0056 169.3315 0002786 25.5616 261.6715 15.73004016 11458

Live tracking and technical data element details for STARLINK-1013 (NORAD 44719). STARLINK-1013 can be tracked NOW for your location showing map with azimuth and elevation plus other details from your city location.

Track the satellite on the map from your city or location and see movement details for azimuth, elevation, latitude, longitude, range, height, and movement on the map or in text.







IsCatalogInMostPopularTable: catalog: 44719, numindb: 10
Update: records affected: 1



GetName: 44719 STARLINK-1013

Hit Count: updated at: Fri, 24 Jan 2020 13:41:55 GMT